datetime,flow
1970-10-01,608.0
1970-10-02,556.0
1970-10-03,563.0
1970-10-04,600.0
1970-10-05,578.0
1970-10-06,533.0
1970-10-07,519.0
1970-10-08,498.0
1970-10-09,533.0
1970-10-10,570.0
1970-10-11,608.0
1970-10-12,681.0
1970-10-13,785.0
1970-10-14,673.0
1970-10-15,608.0
1970-10-16,616.0
1970-10-17,673.0
1970-10-18,624.0
1970-10-19,698.0
1970-10-20,767.0
1970-10-21,842.0
1970-10-22,851.0
1970-10-23,842.0
1970-10-24,823.0
1970-10-25,842.0
1970-10-26,851.0
1970-10-27,870.0
1970-10-28,920.0
1970-10-29,890.0
1970-10-30,823.0
1970-10-31,851.0
1970-11-01,926.0
1970-11-02,954.0
1970-11-03,987.0
1970-11-04,935.0
1970-11-05,1120.0
1970-11-06,1280.0
1970-11-07,1260.0
1970-11-08,1330.0
1970-11-09,1230.0
1970-11-10,1350.0
1970-11-11,1520.0
1970-11-12,1450.0
1970-11-13,1420.0
1970-11-14,1470.0
1970-11-15,1330.0
1970-11-16,1280.0
1970-11-17,1330.0
1970-11-18,1430.0
1970-11-19,1450.0
1970-11-20,1470.0
1970-11-21,1590.0
1970-11-22,1580.0
1970-11-23,1510.0
1970-11-24,1490.0
1970-11-25,1560.0
1970-11-26,1630.0
1970-11-27,1640.0
1970-11-28,1590.0
1970-11-29,1580.0
1970-11-30,1600.0
1970-12-01,1240.0
1970-12-02,1020.0
1970-12-03,952.0
1970-12-04,942.0
1970-12-05,880.0
1970-12-06,883.0
1970-12-07,841.0
1970-12-08,854.0
1970-12-09,837.0
1970-12-10,852.0
1970-12-11,852.0
1970-12-12,876.0
1970-12-13,832.0
1970-12-14,757.0
1970-12-15,733.0
1970-12-16,636.0
1970-12-17,672.0
1970-12-18,630.0
1970-12-19,705.0
1970-12-20,708.0
1970-12-21,705.0
1970-12-22,731.0
1970-12-23,776.0
1970-12-24,715.0
1970-12-25,723.0
1970-12-26,681.0
1970-12-27,669.0
1970-12-28,725.0
1970-12-29,681.0
1970-12-30,715.0
1970-12-31,730.0
1971-01-01,715.0
1971-01-02,725.0
1971-01-03,750.0
1971-01-04,680.0
1971-01-05,590.0
1971-01-06,560.0
1971-01-07,540.0
1971-01-08,530.0
1971-01-09,590.0
1971-01-10,610.0
1971-01-11,630.0
1971-01-12,650.0
1971-01-13,670.0
1971-01-14,690.0
1971-01-15,690.0
1971-01-16,690.0
1971-01-17,730.0
1971-01-18,760.0
1971-01-19,765.0
1971-01-20,775.0
1971-01-21,805.0
1971-01-22,840.0
1971-01-23,833.0
1971-01-24,812.0
1971-01-25,922.0
1971-01-26,934.0
1971-01-27,932.0
1971-01-28,897.0
1971-01-29,842.0
1971-01-30,805.0
1971-01-31,807.0
1971-02-01,829.0
1971-02-02,816.0
1971-02-03,808.0
1971-02-04,881.0
1971-02-05,825.0
1971-02-06,807.0
1971-02-07,789.0
1971-02-08,825.0
1971-02-09,770.0
1971-02-10,772.0
1971-02-11,839.0
1971-02-12,863.0
1971-02-13,840.0
1971-02-14,858.0
1971-02-15,880.0
1971-02-16,902.0
1971-02-17,923.0
1971-02-18,971.0
1971-02-19,1010.0
1971-02-20,1020.0
1971-02-21,947.0
1971-02-22,880.0
1971-02-23,665.0
1971-02-24,689.0
1971-02-25,823.0
1971-02-26,861.0
1971-02-27,880.0
1971-02-28,832.0
1971-03-01,706.0
1971-03-02,698.0
1971-03-03,665.0
1971-03-04,673.0
1971-03-05,732.0
1971-03-06,832.0
1971-03-07,823.0
1971-03-08,795.0
1971-03-09,776.0
1971-03-10,814.0
1971-03-11,880.0
1971-03-12,921.0
1971-03-13,894.0
1971-03-14,903.0
1971-03-15,871.0
1971-03-16,823.0
1971-03-17,810.0
1971-03-18,740.0
1971-03-19,686.0
1971-03-20,841.0
1971-03-21,1060.0
1971-03-22,846.0
1971-03-23,751.0
1971-03-24,892.0
1971-03-25,1180.0
1971-03-26,1250.0
1971-03-27,1470.0
1971-03-28,1730.0
1971-03-29,1940.0
1971-03-30,2350.0
1971-03-31,2570.0
1971-04-01,2550.0
1971-04-02,2150.0
1971-04-03,1770.0
1971-04-04,1450.0
1971-04-05,1320.0
1971-04-06,1250.0
1971-04-07,1310.0
1971-04-08,1010.0
1971-04-09,846.0
1971-04-10,869.0
1971-04-11,799.0
1971-04-12,638.0
1971-04-13,557.0
1971-04-14,540.0
1971-04-15,573.0
1971-04-16,699.0
1971-04-17,670.0
1971-04-18,677.0
1971-04-19,668.0
1971-04-20,864.0
1971-04-21,1060.0
1971-04-22,962.0
1971-04-23,904.0
1971-04-24,1080.0
1971-04-25,989.0
1971-04-26,918.0
1971-04-27,1010.0
1971-04-28,1290.0
1971-04-29,1150.0
1971-04-30,1060.0
1971-05-01,914.0
1971-05-02,773.0
1971-05-03,962.0
1971-05-04,1180.0
1971-05-05,1220.0
1971-05-06,1200.0
1971-05-07,1010.0
1971-05-08,997.0
1971-05-09,1060.0
1971-05-10,1130.0
1971-05-11,923.0
1971-05-12,883.0
1971-05-13,928.0
1971-05-14,916.0
1971-05-15,904.0
1971-05-16,924.0
1971-05-17,852.0
1971-05-18,833.0
1971-05-19,887.0
1971-05-20,810.0
1971-05-21,681.0
1971-05-22,610.0
1971-05-23,685.0
1971-05-24,653.0
1971-05-25,567.0
1971-05-26,562.0
1971-05-27,477.0
1971-05-28,542.0
1971-05-29,541.0
1971-05-30,562.0
1971-05-31,575.0
1971-06-01,525.0
1971-06-02,593.0
1971-06-03,589.0
1971-06-04,436.0
1971-06-05,407.0
1971-06-06,502.0
1971-06-07,467.0
1971-06-08,354.0
1971-06-09,349.0
1971-06-10,356.0
1971-06-11,361.0
1971-06-12,458.0
1971-06-13,387.0
1971-06-14,396.0
1971-06-15,417.0
1971-06-16,842.0
1971-06-17,784.0
1971-06-18,765.0
1971-06-19,798.0
1971-06-20,769.0
1971-06-21,392.0
1971-06-22,280.0
1971-06-23,282.0
1971-06-24,267.0
1971-06-25,229.0
1971-06-26,214.0
1971-06-27,233.0
1971-06-28,190.0
1971-06-29,157.0
1971-06-30,148.0
1971-07-01,570.0
1971-07-02,1420.0
1971-07-03,875.0
1971-07-04,885.0
1971-07-05,658.0
1971-07-06,453.0
1971-07-07,372.0
1971-07-08,361.0
1971-07-09,373.0
1971-07-10,408.0
1971-07-11,469.0
1971-07-12,244.0
1971-07-13,180.0
1971-07-14,135.0
1971-07-15,115.0
1971-07-16,105.0
1971-07-17,102.0
1971-07-18,122.0
1971-07-19,110.0
1971-07-20,254.0
1971-07-21,357.0
1971-07-22,860.0
1971-07-23,1020.0
1971-07-24,602.0
1971-07-25,537.0
1971-07-26,1380.0
1971-07-27,1070.0
1971-07-28,622.0
1971-07-29,513.0
1971-07-30,437.0
1971-07-31,433.0
1971-08-01,475.0
1971-08-02,331.0
1971-08-03,346.0
1971-08-04,283.0
1971-08-05,261.0
1971-08-06,298.0
1971-08-07,366.0
1971-08-08,474.0
1971-08-09,346.0
1971-08-10,619.0
1971-08-11,475.0
1971-08-12,331.0
1971-08-13,518.0
1971-08-14,299.0
1971-08-15,305.0
1971-08-16,289.0
1971-08-17,217.0
1971-08-18,243.0
1971-08-19,668.0
1971-08-20,586.0
1971-08-21,437.0
1971-08-22,645.0
1971-08-23,642.0
1971-08-24,462.0
1971-08-25,371.0
1971-08-26,289.0
1971-08-27,229.0
1971-08-28,186.0
1971-08-29,227.0
1971-08-30,299.0
1971-08-31,244.0
1971-09-01,190.0
1971-09-02,178.0
1971-09-03,166.0
1971-09-04,180.0
1971-09-05,183.0
1971-09-06,151.0
1971-09-07,128.0
1971-09-08,125.0
1971-09-09,139.0
1971-09-10,127.0
1971-09-11,138.0
1971-09-12,152.0
1971-09-13,136.0
1971-09-14,125.0
1971-09-15,119.0
1971-09-16,131.0
1971-09-17,143.0
1971-09-18,335.0
1971-09-19,462.0
1971-09-20,430.0
1971-09-21,395.0
1971-09-22,429.0
1971-09-23,548.0
1971-09-24,527.0
1971-09-25,550.0
1971-09-26,505.0
1971-09-27,354.0
1971-09-28,312.0
1971-09-29,295.0
1971-09-30,1110.0
1971-10-01,1590.0
1971-10-02,2040.0
1971-10-03,1160.0
1971-10-04,736.0
1971-10-05,816.0
1971-10-06,880.0
1971-10-07,885.0
1971-10-08,803.0
1971-10-09,729.0
1971-10-10,705.0
1971-10-11,689.0
1971-10-12,692.0
1971-10-13,669.0
1971-10-14,648.0
1971-10-15,662.0
1971-10-16,684.0
1971-10-17,690.0
1971-10-18,689.0
1971-10-19,621.0
1971-10-20,588.0
1971-10-21,612.0
1971-10-22,599.0
1971-10-23,606.0
1971-10-24,642.0
1971-10-25,782.0
1971-10-26,849.0
1971-10-27,870.0
1971-10-28,770.0
1971-10-29,720.0
1971-10-30,760.0
1971-10-31,750.0
1971-11-01,720.0
1971-11-02,680.0
1971-11-03,660.0
1971-11-04,1000.0
1971-11-05,1200.0
1971-11-06,1500.0
1971-11-07,1700.0
1971-11-08,1700.0
1971-11-09,1650.0
1971-11-10,1580.0
1971-11-11,1560.0
1971-11-12,1570.0
1971-11-13,1610.0
1971-11-14,1570.0
1971-11-15,1580.0
1971-11-16,1660.0
1971-11-17,1380.0
1971-11-18,1130.0
1971-11-19,979.0
1971-11-20,906.0
1971-11-21,904.0
1971-11-22,862.0
1971-11-23,881.0
1971-11-24,898.0
1971-11-25,919.0
1971-11-26,918.0
1971-11-27,917.0
1971-11-28,898.0
1971-11-29,890.0
1971-11-30,880.0
1971-12-01,878.0
1971-12-02,837.0
1971-12-03,835.0
1971-12-04,759.0
1971-12-05,732.0
1971-12-06,689.0
1971-12-07,689.0
1971-12-08,665.0
1971-12-09,715.0
1971-12-10,640.0
1971-12-11,648.0
1971-12-12,689.0
1971-12-13,698.0
1971-12-14,724.0
1971-12-15,681.0
1971-12-16,706.0
1971-12-17,632.0
1971-12-18,657.0
1971-12-19,648.0
1971-12-20,732.0
1971-12-21,698.0
1971-12-22,706.0
1971-12-23,741.0
1971-12-24,750.0
1971-12-25,750.0
1971-12-26,814.0
1971-12-27,950.0
1971-12-28,970.0
1971-12-29,950.0
1971-12-30,890.0
1971-12-31,804.0
1972-01-01,724.0
1972-01-02,759.0
1972-01-03,759.0
1972-01-04,750.0
1972-01-05,570.0
1972-01-06,526.0
1972-01-07,643.0
1972-01-08,715.0
1972-01-09,665.0
1972-01-10,657.0
1972-01-11,732.0
1972-01-12,715.0
1972-01-13,750.0
1972-01-14,724.0
1972-01-15,706.0
1972-01-16,705.0
1972-01-17,712.0
1972-01-18,729.0
1972-01-19,664.0
1972-01-20,689.0
1972-01-21,716.0
1972-01-22,695.0
1972-01-23,682.0
1972-01-24,705.0
1972-01-25,702.0
1972-01-26,692.0
1972-01-27,665.0
1972-01-28,728.0
1972-01-29,657.0
1972-01-30,681.0
1972-01-31,699.0
1972-02-01,663.0
1972-02-02,656.0
1972-02-03,650.0
1972-02-04,712.0
1972-02-05,630.0
1972-02-06,635.0
1972-02-07,655.0
1972-02-08,657.0
1972-02-09,659.0
1972-02-10,696.0
1972-02-11,648.0
1972-02-12,693.0
1972-02-13,648.0
1972-02-14,676.0
1972-02-15,699.0
1972-02-16,725.0
1972-02-17,747.0
1972-02-18,770.0
1972-02-19,835.0
1972-02-20,948.0
1972-02-21,968.0
1972-02-22,1030.0
1972-02-23,1060.0
1972-02-24,1490.0
1972-02-25,1730.0
1972-02-26,1180.0
1972-02-27,1120.0
1972-02-28,977.0
1972-02-29,906.0
1972-03-01,1040.0
1972-03-02,1210.0
1972-03-03,1240.0
1972-03-04,1250.0
1972-03-05,1190.0
1972-03-06,1040.0
1972-03-07,998.0
1972-03-08,1080.0
1972-03-09,1150.0
1972-03-10,1170.0
1972-03-11,1270.0
1972-03-12,1350.0
1972-03-13,1380.0
1972-03-14,1430.0
1972-03-15,1430.0
1972-03-16,1490.0
1972-03-17,1520.0
1972-03-18,1430.0
1972-03-19,1550.0
1972-03-20,1460.0
1972-03-21,1320.0
1972-03-22,1160.0
1972-03-23,1070.0
1972-03-24,1030.0
1972-03-25,1000.0
1972-03-26,1010.0
1972-03-27,867.0
1972-03-28,795.0
1972-03-29,741.0
1972-03-30,665.0
1972-03-31,632.0
1972-04-01,586.0
1972-04-02,586.0
1972-04-03,600.0
1972-04-04,586.0
1972-04-05,548.0
1972-04-06,533.0
1972-04-07,624.0
1972-04-08,767.0
1972-04-09,795.0
1972-04-10,804.0
1972-04-11,823.0
1972-04-12,832.0
1972-04-13,823.0
1972-04-14,870.0
1972-04-15,724.0
1972-04-16,795.0
1972-04-17,724.0
1972-04-18,632.0
1972-04-19,548.0
1972-04-20,540.0
1972-04-21,563.0
1972-04-22,578.0
1972-04-23,578.0
1972-04-24,540.0
1972-04-25,498.0
1972-04-26,471.0
1972-04-27,464.0
1972-04-28,478.0
1972-04-29,506.0
1972-04-30,533.0
1972-05-01,487.0
1972-05-02,418.0
1972-05-03,360.0
1972-05-04,288.0
1972-05-05,294.0
1972-05-06,287.0
1972-05-07,346.0
1972-05-08,401.0
1972-05-09,349.0
1972-05-10,397.0
1972-05-11,373.0
1972-05-12,323.0
1972-05-13,336.0
1972-05-14,302.0
1972-05-15,285.0
1972-05-16,262.0
1972-05-17,242.0
1972-05-18,197.0
1972-05-19,213.0
1972-05-20,314.0
1972-05-21,281.0
1972-05-22,218.0
1972-05-23,280.0
1972-05-24,365.0
1972-05-25,501.0
1972-05-26,400.0
1972-05-27,445.0
1972-05-28,463.0
1972-05-29,449.0
1972-05-30,535.0
1972-05-31,541.0
1972-06-01,519.0
1972-06-02,455.0
1972-06-03,403.0
1972-06-04,421.0
1972-06-05,339.0
1972-06-06,256.0
1972-06-07,263.0
1972-06-08,348.0
1972-06-09,390.0
1972-06-10,424.0
1972-06-11,445.0
1972-06-12,487.0
1972-06-13,545.0
1972-06-14,547.0
1972-06-15,448.0
1972-06-16,631.0
1972-06-17,436.0
1972-06-18,304.0
1972-06-19,312.0
1972-06-20,265.0
1972-06-21,232.0
1972-06-22,266.0
1972-06-23,317.0
1972-06-24,451.0
1972-06-25,442.0
1972-06-26,427.0
1972-06-27,377.0
1972-06-28,352.0
1972-06-29,339.0
1972-06-30,308.0
1972-07-01,310.0
1972-07-02,302.0
1972-07-03,169.0
1972-07-04,133.0
1972-07-05,150.0
1972-07-06,307.0
1972-07-07,242.0
1972-07-08,206.0
1972-07-09,178.0
1972-07-10,163.0
1972-07-11,145.0
1972-07-12,155.0
1972-07-13,164.0
1972-07-14,182.0
1972-07-15,344.0
1972-07-16,772.0
1972-07-17,625.0
1972-07-18,232.0
1972-07-19,143.0
1972-07-20,173.0
1972-07-21,277.0
1972-07-22,460.0
1972-07-23,324.0
1972-07-24,345.0
1972-07-25,326.0
1972-07-26,417.0
1972-07-27,450.0
1972-07-28,432.0
1972-07-29,386.0
1972-07-30,311.0
1972-07-31,262.0
1972-08-01,267.0
1972-08-02,276.0
1972-08-03,308.0
1972-08-04,374.0
1972-08-05,574.0
1972-08-06,352.0
1972-08-07,265.0
1972-08-08,334.0
1972-08-09,308.0
1972-08-10,269.0
1972-08-11,241.0
1972-08-12,190.0
1972-08-13,152.0
1972-08-14,145.0
1972-08-15,134.0
1972-08-16,143.0
1972-08-17,171.0
1972-08-18,174.0
1972-08-19,242.0
1972-08-20,414.0
1972-08-21,212.0
1972-08-22,185.0
1972-08-23,171.0
1972-08-24,166.0
1972-08-25,167.0
1972-08-26,233.0
1972-08-27,306.0
1972-08-28,253.0
1972-08-29,259.0
1972-08-30,323.0
1972-08-31,267.0
1972-09-01,285.0
1972-09-02,345.0
1972-09-03,362.0
1972-09-04,402.0
1972-09-05,351.0
1972-09-06,329.0
1972-09-07,287.0
1972-09-08,267.0
1972-09-09,383.0
1972-09-10,914.0
1972-09-11,587.0
1972-09-12,471.0
1972-09-13,450.0
1972-09-14,760.0
1972-09-15,623.0
1972-09-16,512.0
1972-09-17,481.0
1972-09-18,453.0
1972-09-19,404.0
1972-09-20,398.0
1972-09-21,363.0
1972-09-22,377.0
1972-09-23,434.0
1972-09-24,548.0
1972-09-25,371.0
1972-09-26,231.0
1972-09-27,201.0
1972-09-28,189.0
1972-09-29,195.0
1972-09-30,193.0
1972-10-01,190.0
1972-10-02,203.0
1972-10-03,159.0
1972-10-04,159.0
1972-10-05,154.0
1972-10-06,158.0
1972-10-07,174.0
1972-10-08,219.0
1972-10-09,328.0
1972-10-10,279.0
1972-10-11,389.0
1972-10-12,354.0
1972-10-13,369.0
1972-10-14,347.0
1972-10-15,417.0
1972-10-16,590.0
1972-10-17,480.0
1972-10-18,728.0
1972-10-19,970.0
1972-10-20,850.0
1972-10-21,1350.0
1972-10-22,1510.0
1972-10-23,1220.0
1972-10-24,1060.0
1972-10-25,901.0
1972-10-26,891.0
1972-10-27,809.0
1972-10-28,775.0
1972-10-29,867.0
1972-10-30,853.0
1972-10-31,1020.0
1972-11-01,1090.0
1972-11-02,1170.0
1972-11-03,1060.0
1972-11-04,1080.0
1972-11-05,1060.0
1972-11-06,1180.0
1972-11-07,1340.0
1972-11-08,1230.0
1972-11-09,1160.0
1972-11-10,1150.0
1972-11-11,1060.0
1972-11-12,940.0
1972-11-13,1000.0
1972-11-14,920.0
1972-11-15,1090.0
1972-11-16,1110.0
1972-11-17,1000.0
1972-11-18,1050.0
1972-11-19,970.0
1972-11-20,1020.0
1972-11-21,940.0
1972-11-22,1060.0
1972-11-23,910.0
1972-11-24,960.0
1972-11-25,842.0
1972-11-26,673.0
1972-11-27,767.0
1972-11-28,776.0
1972-11-29,759.0
1972-11-30,750.0
1972-12-01,750.0
1972-12-02,681.0
1972-12-03,776.0
1972-12-04,741.0
1972-12-05,795.0
1972-12-06,741.0
1972-12-07,741.0
1972-12-08,698.0
1972-12-09,681.0
1972-12-10,681.0
1972-12-11,705.0
1972-12-12,789.0
1972-12-13,788.0
1972-12-14,674.0
1972-12-15,662.0
1972-12-16,634.0
1972-12-17,593.0
1972-12-18,719.0
1972-12-19,750.0
1972-12-20,665.0
1972-12-21,701.0
1972-12-22,730.0
1972-12-23,686.0
1972-12-24,664.0
1972-12-25,726.0
1972-12-26,706.0
1972-12-27,693.0
1972-12-28,710.0
1972-12-29,770.0
1972-12-30,762.0
1972-12-31,681.0
1973-01-01,651.0
1973-01-02,666.0
1973-01-03,628.0
1973-01-04,755.0
1973-01-05,729.0
1973-01-06,751.0
1973-01-07,697.0
1973-01-08,722.0
1973-01-09,730.0
1973-01-10,734.0
1973-01-11,707.0
1973-01-12,680.0
1973-01-13,656.0
1973-01-14,716.0
1973-01-15,707.0
1973-01-16,698.0
1973-01-17,689.0
1973-01-18,714.0
1973-01-19,743.0
1973-01-20,734.0
1973-01-21,698.0
1973-01-22,716.0
1973-01-23,680.0
1973-01-24,648.0
1973-01-25,672.0
1973-01-26,648.0
1973-01-27,680.0
1973-01-28,716.0
1973-01-29,689.0
1973-01-30,707.0
1973-01-31,743.0
1973-02-01,672.0
1973-02-02,725.0
1973-02-03,648.0
1973-02-04,648.0
1973-02-05,725.0
1973-02-06,734.0
1973-02-07,698.0
1973-02-08,734.0
1973-02-09,743.0
1973-02-10,727.0
1973-02-11,734.0
1973-02-12,827.0
1973-02-13,781.0
1973-02-14,736.0
1973-02-15,773.0
1973-02-16,794.0
1973-02-17,766.0
1973-02-18,766.0
1973-02-19,740.0
1973-02-20,700.0
1973-02-21,695.0
1973-02-22,765.0
1973-02-23,689.0
1973-02-24,689.0
1973-02-25,716.0
1973-02-26,689.0
1973-02-27,672.0
1973-02-28,698.0
1973-03-01,770.0
1973-03-02,890.0
1973-03-03,1060.0
1973-03-04,1220.0
1973-03-05,1090.0
1973-03-06,936.0
1973-03-07,864.0
1973-03-08,870.0
1973-03-09,853.0
1973-03-10,917.0
1973-03-11,860.0
1973-03-12,943.0
1973-03-13,978.0
1973-03-14,1020.0
1973-03-15,1020.0
1973-03-16,949.0
1973-03-17,1000.0
1973-03-18,1040.0
1973-03-19,1160.0
1973-03-20,1310.0
1973-03-21,1370.0
1973-03-22,1550.0
1973-03-23,1440.0
1973-03-24,1330.0
1973-03-25,1310.0
1973-03-26,1160.0
1973-03-27,1130.0
1973-03-28,1130.0
1973-03-29,1170.0
1973-03-30,1140.0
1973-03-31,1190.0
1973-04-01,1180.0
1973-04-02,1140.0
1973-04-03,1090.0
1973-04-04,1070.0
1973-04-05,980.0
1973-04-06,985.0
1973-04-07,1150.0
1973-04-08,1190.0
1973-04-09,1020.0
1973-04-10,955.0
1973-04-11,996.0
1973-04-12,1160.0
1973-04-13,1520.0
1973-04-14,2090.0
1973-04-15,2660.0
1973-04-16,2820.0
1973-04-17,2070.0
1973-04-18,1860.0
1973-04-19,2480.0
1973-04-20,2020.0
1973-04-21,1700.0
1973-04-22,1550.0
1973-04-23,1580.0
1973-04-24,1850.0
1973-04-25,2070.0
1973-04-26,2260.0
1973-04-27,2470.0
1973-04-28,2700.0
1973-04-29,3210.0
1973-04-30,3530.0
1973-05-01,3630.0
1973-05-02,3400.0
1973-05-03,2940.0
1973-05-04,2980.0
1973-05-05,3420.0
1973-05-06,3710.0
1973-05-07,3550.0
1973-05-08,3710.0
1973-05-09,3660.0
1973-05-10,4080.0
1973-05-11,5120.0
1973-05-12,5700.0
1973-05-13,7000.0
1973-05-14,7900.0
1973-05-15,6600.0
1973-05-16,5700.0
1973-05-17,5400.0
1973-05-18,5600.0
1973-05-19,6100.0
1973-05-20,6800.0
1973-05-21,7500.0
1973-05-22,7800.0
1973-05-23,8100.0
1973-05-24,7700.0
1973-05-25,7200.0
1973-05-26,6600.0
1973-05-27,6400.0
1973-05-28,6100.0
1973-05-29,5800.0
1973-05-30,5500.0
1973-05-31,5200.0
1973-06-01,5200.0
1973-06-02,5600.0
1973-06-03,5800.0
1973-06-04,5900.0
1973-06-05,5600.0
1973-06-06,5100.0
1973-06-07,4800.0
1973-06-08,4700.0
1973-06-09,4500.0
1973-06-10,4700.0
1973-06-11,5000.0
1973-06-12,5200.0
1973-06-13,5600.0
1973-06-14,5700.0
1973-06-15,5600.0
1973-06-16,5500.0
1973-06-17,5000.0
1973-06-18,4600.0
1973-06-19,4500.0
1973-06-20,4100.0
1973-06-21,3800.0
1973-06-22,3900.0
1973-06-23,4200.0
1973-06-24,4200.0
1973-06-25,4200.0
1973-06-26,4300.0
1973-06-27,4500.0
1973-06-28,4700.0
1973-06-29,5000.0
1973-06-30,4800.0
1973-07-01,4700.0
1973-07-02,4600.0
1973-07-03,4400.0
1973-07-04,4200.0
1973-07-05,4000.0
1973-07-06,3900.0
1973-07-07,3600.0
1973-07-08,3600.0
1973-07-09,3500.0
1973-07-10,3300.0
1973-07-11,3200.0
1973-07-12,3200.0
1973-07-13,3400.0
1973-07-14,2800.0
1973-07-15,2000.0
1973-07-16,1700.0
1973-07-17,2000.0
1973-07-18,2300.0
1973-07-19,2100.0
1973-07-20,2000.0
1973-07-21,2200.0
1973-07-22,3000.0
1973-07-23,3200.0
1973-07-24,3400.0
1973-07-25,3300.0
1973-07-26,3900.0
1973-07-27,3300.0
1973-07-28,3300.0
1973-07-29,3200.0
1973-07-30,3200.0
1973-07-31,3180.0
1973-08-01,2830.0
1973-08-02,2630.0
1973-08-03,2530.0
1973-08-04,2430.0
1973-08-05,2270.0
1973-08-06,2210.0
1973-08-07,2170.0
1973-08-08,2130.0
1973-08-09,2100.0
1973-08-10,2080.0
1973-08-11,2040.0
1973-08-12,2000.0
1973-08-13,2000.0
1973-08-14,2060.0
1973-08-15,2030.0
1973-08-16,995.0
1973-08-17,666.0
1973-08-18,794.0
1973-08-19,900.0
1973-08-20,990.0
1973-08-21,1060.0
1973-08-22,1140.0
1973-08-23,950.0
1973-08-24,945.0
1973-08-25,948.0
1973-08-26,979.0
1973-08-27,988.0
1973-08-28,950.0
1973-08-29,949.0
1973-08-30,1220.0
1973-08-31,1050.0
1973-09-01,1010.0
1973-09-02,973.0
1973-09-03,968.0
1973-09-04,1010.0
1973-09-05,1030.0
1973-09-06,994.0
1973-09-07,987.0
1973-09-08,988.0
1973-09-09,964.0
1973-09-10,1000.0
1973-09-11,1770.0
1973-09-12,1500.0
1973-09-13,914.0
1973-09-14,774.0
1973-09-15,1050.0
1973-09-16,1320.0
1973-09-17,1260.0
1973-09-18,1130.0
1973-09-19,929.0
1973-09-20,821.0
1973-09-21,822.0
1973-09-22,807.0
1973-09-23,764.0
1973-09-24,735.0
1973-09-25,750.0
1973-09-26,755.0
1973-09-27,750.0
1973-09-28,744.0
1973-09-29,774.0
1973-09-30,793.0
1973-10-01,773.0
1973-10-02,747.0
1973-10-03,690.0
1973-10-04,671.0
1973-10-05,657.0
1973-10-06,694.0
1973-10-07,659.0
1973-10-08,682.0
1973-10-09,714.0
1973-10-10,760.0
1973-10-11,807.0
1973-10-12,793.0
1973-10-13,742.0
1973-10-14,743.0
1973-10-15,699.0
1973-10-16,683.0
1973-10-17,682.0
1973-10-18,656.0
1973-10-19,712.0
1973-10-20,753.0
1973-10-21,798.0
1973-10-22,863.0
1973-10-23,860.0
1973-10-24,844.0
1973-10-25,774.0
1973-10-26,790.0
1973-10-27,776.0
1973-10-28,726.0
1973-10-29,702.0
1973-10-30,702.0
1973-10-31,773.0
1973-11-01,821.0
1973-11-02,786.0
1973-11-03,757.0
1973-11-04,761.0
1973-11-05,777.0
1973-11-06,770.0
1973-11-07,760.0
1973-11-08,738.0
1973-11-09,718.0
1973-11-10,683.0
1973-11-11,652.0
1973-11-12,238.0
1973-11-13,44.0
1973-11-14,170.0
1973-11-15,400.0
1973-11-16,444.0
1973-11-17,496.0
1973-11-18,532.0
1973-11-19,560.0
1973-11-20,890.0
1973-11-21,1090.0
1973-11-22,1120.0
1973-11-23,1180.0
1973-11-24,1230.0
1973-11-25,1260.0
1973-11-26,1260.0
1973-11-27,1320.0
1973-11-28,1320.0
1973-11-29,1340.0
1973-11-30,1360.0
1973-12-01,1420.0
1973-12-02,1490.0
1973-12-03,1530.0
1973-12-04,1580.0
1973-12-05,1580.0
1973-12-06,1580.0
1973-12-07,1560.0
1973-12-08,1510.0
1973-12-09,1510.0
1973-12-10,1530.0
1973-12-11,1550.0
1973-12-12,1550.0
1973-12-13,1530.0
1973-12-14,1560.0
1973-12-15,1550.0
1973-12-16,1550.0
1973-12-17,1550.0
1973-12-18,1510.0
1973-12-19,1550.0
1973-12-20,1560.0
1973-12-21,1550.0
1973-12-22,1530.0
1973-12-23,1550.0
1973-12-24,1580.0
1973-12-25,1580.0
1973-12-26,1550.0
1973-12-27,1560.0
1973-12-28,1600.0
1973-12-29,1640.0
1973-12-30,1650.0
1973-12-31,1650.0
1974-01-01,1690.0
1974-01-02,1620.0
1974-01-03,1480.0
1974-01-04,1260.0
1974-01-05,1140.0
1974-01-06,1280.0
1974-01-07,1330.0
1974-01-08,1340.0
1974-01-09,1360.0
1974-01-10,1320.0
1974-01-11,1290.0
1974-01-12,1250.0
1974-01-13,1240.0
1974-01-14,1260.0
1974-01-15,1270.0
1974-01-16,1250.0
1974-01-17,1250.0
1974-01-18,1260.0
1974-01-19,1280.0
1974-01-20,1270.0
1974-01-21,1270.0
1974-01-22,1300.0
1974-01-23,1310.0
1974-01-24,1300.0
1974-01-25,1280.0
1974-01-26,1270.0
1974-01-27,1270.0
1974-01-28,1270.0
1974-01-29,1230.0
1974-01-30,1220.0
1974-01-31,1160.0
1974-02-01,1210.0
1974-02-02,1250.0
1974-02-03,1110.0
1974-02-04,814.0
1974-02-05,709.0
1974-02-06,694.0
1974-02-07,693.0
1974-02-08,680.0
1974-02-09,652.0
1974-02-10,647.0
1974-02-11,650.0
1974-02-12,656.0
1974-02-13,571.0
1974-02-14,714.0
1974-02-15,695.0
1974-02-16,670.0
1974-02-17,660.0
1974-02-18,658.0
1974-02-19,661.0
1974-02-20,652.0
1974-02-21,659.0
1974-02-22,660.0
1974-02-23,660.0
1974-02-24,650.0
1974-02-25,642.0
1974-02-26,636.0
1974-02-27,644.0
1974-02-28,656.0
1974-03-01,651.0
1974-03-02,650.0
1974-03-03,671.0
1974-03-04,674.0
1974-03-05,684.0
1974-03-06,678.0
1974-03-07,674.0
1974-03-08,699.0
1974-03-09,720.0
1974-03-10,775.0
1974-03-11,866.0
1974-03-12,846.0
1974-03-13,839.0
1974-03-14,912.0
1974-03-15,983.0
1974-03-16,1140.0
1974-03-17,1260.0
1974-03-18,1200.0
1974-03-19,1040.0
1974-03-20,985.0
1974-03-21,1040.0
1974-03-22,1120.0
1974-03-23,1180.0
1974-03-24,1230.0
1974-03-25,1250.0
1974-03-26,1240.0
1974-03-27,1260.0
1974-03-28,1290.0
1974-03-29,1290.0
1974-03-30,1300.0
1974-03-31,1320.0
1974-04-01,1350.0
1974-04-02,1390.0
1974-04-03,1440.0
1974-04-04,1420.0
1974-04-05,1250.0
1974-04-06,954.0
1974-04-07,771.0
1974-04-08,696.0
1974-04-09,651.0
1974-04-10,620.0
1974-04-11,608.0
1974-04-12,632.0
1974-04-13,660.0
1974-04-14,617.0
1974-04-15,565.0
1974-04-16,511.0
1974-04-17,471.0
1974-04-18,461.0
1974-04-19,463.0
1974-04-20,488.0
1974-04-21,508.0
1974-04-22,580.0
1974-04-23,621.0
1974-04-24,620.0
1974-04-25,652.0
1974-04-26,721.0
1974-04-27,835.0
1974-04-28,936.0
1974-04-29,944.0
1974-04-30,995.0
1974-05-01,1000.0
1974-05-02,939.0
1974-05-03,900.0
1974-05-04,851.0
1974-05-05,858.0
1974-05-06,980.0
1974-05-07,1060.0
1974-05-08,1030.0
1974-05-09,1010.0
1974-05-10,910.0
1974-05-11,756.0
1974-05-12,733.0
1974-05-13,763.0
1974-05-14,782.0
1974-05-15,983.0
1974-05-16,1130.0
1974-05-17,938.0
1974-05-18,754.0
1974-05-19,719.0
1974-05-20,746.0
1974-05-21,728.0
1974-05-22,770.0
1974-05-23,764.0
1974-05-24,729.0
1974-05-25,720.0
1974-05-26,719.0
1974-05-27,724.0
1974-05-28,685.0
1974-05-29,696.0
1974-05-30,686.0
1974-05-31,658.0
1974-06-01,641.0
1974-06-02,662.0
1974-06-03,672.0
1974-06-04,665.0
1974-06-05,653.0
1974-06-06,722.0
1974-06-07,808.0
1974-06-08,826.0
1974-06-09,920.0
1974-06-10,993.0
1974-06-11,951.0
1974-06-12,931.0
1974-06-13,902.0
1974-06-14,881.0
1974-06-15,845.0
1974-06-16,852.0
1974-06-17,921.0
1974-06-18,948.0
1974-06-19,932.0
1974-06-20,888.0
1974-06-21,875.0
1974-06-22,848.0
1974-06-23,838.0
1974-06-24,838.0
1974-06-25,820.0
1974-06-26,802.0
1974-06-27,772.0
1974-06-28,611.0
1974-06-29,470.0
1974-06-30,434.0
1974-07-01,423.0
1974-07-02,412.0
1974-07-03,382.0
1974-07-04,515.0
1974-07-05,763.0
1974-07-06,859.0
1974-07-07,876.0
1974-07-08,859.0
1974-07-09,862.0
1974-07-10,750.0
1974-07-11,489.0
1974-07-12,429.0
1974-07-13,318.0
1974-07-14,283.0
1974-07-15,254.0
1974-07-16,245.0
1974-07-17,243.0
1974-07-18,234.0